Starlink 5093

operational
NORAD ID: 56332 Int'l Des: 2023-058 Owner: SPXS Country: US Constellation: starlink
LEOCIRCULARRETROGRADESSO

About Starlink 5093

Description loading...

Live Position

Loading 3D Globe...

Upcoming Passes

Altitude History

Altitude vs Time

uPlot chart will show altitude changes over time

Two-Line Element Set

1 56332U 23058R 25304.55847061 .00000991 00000-0 81684-4 0 9997
2 56332 97.6046 303.7484 0001800 82.3496 277.7932 15.01258348138751
Epoch: Oct 31, 2025 • Age: 8 hours

Current Status

Altitude 575.1 km
Velocity 7.58 km/s
Sub-Earth Point 80.32°N, 114.06°W
Launch Date Apr 27, 2023
Age 2.5 years
Type internet

Technical Details

Classification Payload
Mass 300.00 kg
Dry Mass 260.00 kg
Total Mass 300.00 kg
Length 0.20 m
Diameter 2.80 m
Span 9.00 m
Shape Box + pan
Manufacturer SPXS
Bus Type Starlink
Phase Status In Orbit
Owner/State SPXS/US

Large Constellations

Loading constellations...